Weather Roundup
Issued by NWS

Home | Current Version | Previous Version | Graphics & Text | Print | Product List | Glossary On
Versions: 1 2 3 4 5 6 7 8 9 10 11 12 13 14 15 16 17 18 19 20 21 22 23 24 25 26 27 28 29 30 31 32 33 34 35 36 37 38 39 40 41 42 43 44 45 46 47 48 49 50
000
NZUS93 KARX 190110
HRRWXR

CURRENT HOURLY OBSERVATIONS ACROSS
MUCH OF THE UPPER MISSISSIPPI VALLEY
NATIONAL WEATHER SERVICE LA CROSSE WI
800 PM CDT FRI APR 18 2014


...SOUTHEAST MINNESOTA...


CITY           SKY/WX    TMP DP  RH WIND       PRES   REMARKS
ROCHESTER      PTCLDY    46  32  58 SE10      30.23F
ROCHESTER/MAYO FAIR      51  25  36 E9        30.24S
WINONA         MOCLDY    48  32  53 SE6       30.27S
AUSTIN         CLEAR     50  34  53 SE8       30.21S
ALBERT LEA     CLEAR     52  34  50 SE10      30.18F
DODGE CENTER   PTCLDY    52  34  50 SE12      30.22F
PRESTON        PTCLDY    51  29  42 E8        30.25S
OWATONNA       CLEAR     50  34  53 E14       30.19F
FARIBAULT      CLEAR     54  30  40 E8        30.20F
$$

...ELSEWHERE IN MINNESOTA...


CITY           SKY/WX    TMP DP  RH WIND       PRES   REMARKS
MINNEAPOLIS    MOCLDY    49  27  42 SE13      30.22F
INTNL FALLS    MOCLDY    41  13  31 SE9       30.22F
DULUTH         PTCLDY    35  19  52 E13       30.29F WCI  26
RED WING       MOCLDY    48  27  43 SE7       30.24S
REDWOOD FALLS  PTCLDY    52  37  56 SE18      30.07F
MANKATO        CLEAR     50  34  53 SE15      30.16F
WORTHINGTON    CLOUDY    57  30  35 SE17G23   30.06F
FAIRMONT       CLEAR     54  30  40 SE16      30.14S
$$

...SOUTHWEST WISCONSIN...


CITY           SKY/WX    TMP DP  RH WIND       PRES   REMARKS
LA CROSSE      MOCLDY    53  26  35 SE8       30.27S
PRAIRIE DU CHI CLEAR     53  26  35 CALM      30.26S
BOSCOBEL       PTCLDY    53  26  35 E6        30.28F
LONE ROCK      PTCLDY    48  36  63 E7        30.29F
PLATTEVILLE    PTCLDY    51  32  48 E7        30.28S
FORT MC COY    CLEAR     47  24  40 E3        30.29F
CAMP DOUGLAS   CLEAR     45  24  43 NE5       30.30S
VIROQUA        FAIR      47  30  50 E8        30.27S
WIS DELLS      CLEAR     48  25  41 E5        30.31S
$$

...ELSEWHERE IN WISCONSIN...


CITY           SKY/WX    TMP DP  RH WIND       PRES   REMARKS
MILWAUKEE      PTCLDY    34  27  75 NE7       30.39S WCI  28
MADISON        PTCLDY    46  29  51 E9        30.31S
GREEN BAY      CLEAR     41  30  65 E10       30.38S
EAU CLAIRE     PTCLDY    48  24  39 E10       30.27F
BLACK RVR FLS  FAIR      49  22  35 E7        30.28F
MEDFORD        CLEAR     42  22  44 E5        30.31F
WAUSAU         CLEAR     44  18  35 NE5       30.31F
WIS RAPIDS     CLEAR     46  20  35 E5        30.33F
MARSHFIELD     PTCLDY    44  24  45 E7        30.30F
RICE LAKE      MOCLDY    44  22  42 E6        30.29F
$$

...NORTHEAST IOWA...


CITY           SKY/WX    TMP DP  RH WIND       PRES   REMARKS
WATERLOO       CLEAR     53  28  38 SE9       30.22S
DUBUQUE        CLEAR     50  30  46 E6        30.26F
DECORAH        CLEAR     52  28  40 SE6       30.24S
MASON CITY     CLEAR     51  33  50 SE12      30.19F
CHARLES CITY   CLEAR     52  30  43 SE9       30.22F
OELWEIN        CLEAR    N/A N/A N/A E8        30.24F
$$

...ELSEWHERE IN IOWA...


CITY           SKY/WX    TMP DP  RH WIND       PRES   REMARKS
DES MOINES     PTCLDY    62  33  33 SE10      30.17F
IOWA CITY      CLEAR     57  27  31 SE5       30.25F
FORT DODGE     CLEAR     57  30  35 SE12      30.15F
MARSHALLTOWN   CLEAR     53  30  41 SE10      30.19F
CEDAR RAPIDS   CLEAR     53  28  38 E7        30.22F
$$

...NORTHERN ILLINOIS...


CITY           SKY/WX    TMP DP  RH WIND       PRES   REMARKS
CHICAGO-OHARE  CLEAR     40  28  62 NE12      30.35R WCI  33
DUPAGE         CLEAR     41  31  67 NE16      30.33R
CHICAGO-MIDWAY PTCLDY    40  31  70 NE15      30.35R WCI  32
MOLINE         CLEAR     54  30  40 E7        30.25R
ROCKFORD       CLEAR     51  35  54 E14       30.32R
STERLING       CLEAR     55  32  41 NE7       30.27R
PEORIA         CLEAR     60  28  29 NE5       30.25R
$$

NOTE: "FAIR" INDICATES FEW OR NO CLOUDS BELOW 12,000 FEET WITH NO
SIGNIFICANT WEATHER AND/OR OBSTRUCTIONS TO VISIBILITY. WIND
SPEEDS ARE IN MILES-PER-HOUR.



USA.gov is the U.S. government's official web portal to all federal, state and local government web resources and services.